Content
SEND FEEDBACK

Daily
Averages
Monthly
Summary
United States of America

FORESTDALE, MASSACHUSETTS


Home > North America > United States > Massachusetts
Elevation: 131 feet     Latitude: 41 39N     Longitude: 070 31W

WEATHER
 
SELECT A DAY
Number of Records: 279,188;   Date Range: 1/1/95 - 11/23/14
 
SHARE

PRINT THIS DATA

[ ← Previous Day ]
WEATHER ALMANAC - JANUARY 3, 2013
[ Next Day → ]
[ °C ]   °F
Weather ElementAverageHighLow
Temperature16.5 °F24.8 °F (9:15 pm)6.8 °F (7:15 am)
Dewpoint2.7 °F14 °F (9:35 pm)-4 °F (7:35 am)
Humidity55.3 %74 % (11:15 pm)42 % (6:55 pm)
Barometer30.07 in30.14 in (8:35 am)30.01 in (11:55 pm)
Wind Speed7 mph12.7 mph (12:55 am)
Wind Gust21.9 mph (2:15 am)
Weather ElementAverage
Visibility10 mi
Wind DirectionWNW (284.6 °)

Weather ElementTotal
Precipitation---
Heating Degree Days49.2 (Base 65)
Averaged from 71 records on January 3, 2013
WEATHER CONDITIONS BREAKOUT
WIND DIRECTION BREAKOUT
WEATHER BY HOUR - JANUARY 3, 2013
[ °C ]   °F
Local TimeTemperatureDewpointHumidityBarometerVisibilityWind DirectionWind SpeedGust SpeedPrecipitationEventsConditions
12:35 AM17.6 °F1.4 °F49 %30.08 in10.0 miNNW (330°)10.4 mph18.4 mphClear
12:55 AM15.8 °F1.4 °F53 %30.08 in10.0 miNNW (330°)12.7 mph18.4 mphClear
1:15 AM15.8 °F-0.4 °F49 %30.09 in10.0 miNW (320°)11.5 mph20.7 mphClear
1:35 AM15.8 °F1.4 °F53 %30.09 in10.0 miNW (320°)11.5 mph17.3 mphClear
1:55 AM15.8 °F1.4 °F53 %30.10 in10.0 miNW (310°)11.5 mphClear
2:15 AM15.8 °F-0.4 °F49 %30.10 in10.0 miNW (320°)11.5 mph21.9 mphClear
2:35 AM14.0 °F-0.4 °F53 %30.10 in10.0 miNW (320°)11.5 mph17.3 mphClear
2:55 AM14.0 °F-0.4 °F53 %30.09 in10.0 miNNW (330°)9.2 mphClear
3:15 AM14.0 °F-0.4 °F53 %30.09 in10.0 miNNW (330°)8.1 mphClear
3:35 AM14.0 °F-0.4 °F53 %30.09 in10.0 miNNW (340°)6.9 mphClear
3:55 AM12.2 °F-0.4 °F57 %30.09 in10.0 miNorth (350°)6.9 mphClear
4:15 AM10.4 °F-0.4 °F62 %30.10 in10.0 miNorth (350°)4.6 mphClear
4:35 AM10.4 °F-0.4 °F62 %30.09 in10.0 miNNW (340°)4.6 mphClear
4:55 AM10.4 °F-0.4 °F62 %30.09 in10.0 miNNW (340°)5.8 mphClear
5:15 AM10.4 °F-0.4 °F62 %30.09 in10.0 miNW (310°)6.9 mphClear
5:35 AM10.4 °F-2.2 °F57 %30.11 in10.0 miNW (320°)6.9 mphClear
5:55 AM8.6 °F-2.2 °F62 %30.11 in10.0 miNW (320°)9.2 mphClear
6:15 AM8.6 °F-2.2 °F62 %30.10 in10.0 miNW (320°)6.9 mphClear
6:35 AM8.6 °F-2.2 °F62 %30.11 in10.0 miNNW (330°)4.6 mphClear
6:55 AM8.6 °F-2.2 °F62 %30.12 in10.0 miNorth (350°)4.6 mphClear
7:15 AM6.8 °F-2.2 °F67 %30.11 in10.0 miNW (320°)6.9 mphClear
7:35 AM6.8 °F-4.0 °F61 %30.11 in10.0 miNW (320°)8.1 mphClear
7:55 AM6.8 °F-4.0 °F61 %30.13 in10.0 miNW (320°)5.8 mphClear
8:15 AM6.8 °F-2.2 °F67 %30.13 in10.0 miNW (310°)5.8 mphClear
8:35 AM8.6 °F-2.2 °F62 %30.14 in10.0 miNW (310°)5.8 mphClear
8:55 AM8.6 °F-2.2 °F62 %30.14 in10.0 miNW (310°)6.9 mphClear
9:15 AM8.6 °F-2.2 °F62 %30.13 in10.0 miNW (310°)5.8 mphClear
9:35 AM10.4 °F-0.4 °F62 %30.13 in10.0 miWNW (300°)6.9 mphClear
9:55 AM10.4 °F-2.2 °F57 %30.13 in10.0 miWNW (300°)5.8 mphClear
10:15 AM12.2 °F-0.4 °F57 %30.13 in10.0 miWNW (300°)5.8 mphClear
10:35 AM14.0 °F-0.4 °F53 %30.11 in10.0 miWNW (300°)5.8 mphClear
10:55 AM14.0 °F-0.4 °F53 %30.10 in10.0 miWNW (300°)5.8 mphClear
11:15 AM15.8 °F-0.4 °F49 %30.09 in10.0 miWNW (290°)4.6 mphClear
11:35 AM15.8 °F1.4 °F53 %30.08 in10.0 miWSW (250°)4.6 mphClear
11:55 AM17.6 °F1.4 °F49 %30.07 in10.0 miWest (260°)6.9 mphClear
12:15 PM17.6 °F3.2 °F53 %30.07 in10.0 miNW (310°)6.9 mphClear
12:35 PM17.6 °F3.2 °F53 %30.06 in10.0 miWNW (290°)8.1 mphClear
12:55 PM19.4 °F5.0 °F54 %30.05 in10.0 miWNW (290°)4.6 mphClear
1:15 PM19.4 °F5.0 °F54 %30.04 in10.0 miWNW (300°)5.8 mphClear
1:35 PM21.2 °F5.0 °F50 %30.03 in10.0 miWNW (300°)8.1 mphClear
1:55 PM21.2 °F5.0 °F50 %30.03 in10.0 miWest (270°)8.1 mphClear
2:15 PM23.0 °F3.2 °F43 %30.03 in10.0 miNW (310°)9.2 mphClear
2:35 PM23.0 °F5.0 °F46 %30.03 in10.0 miWNW (300°)10.4 mphClear
2:55 PM23.0 °F3.2 °F43 %30.03 in10.0 miWNW (300°)8.1 mphClear
3:15 PM23.0 °F5.0 °F46 %30.04 in10.0 miWest (280°)9.2 mphClear
3:35 PM23.0 °F5.0 °F46 %30.04 in10.0 miWest (280°)9.2 mphClear
3:55 PM23.0 °F5.0 °F46 %30.04 in10.0 miWNW (290°)6.9 mphClear
4:15 PM21.2 °F5.0 °F50 %30.03 in10.0 miWest (280°)6.9 mphClear
4:35 PM19.4 °F5.0 °F54 %30.03 in10.0 miWest (280°)6.9 mphClear
4:55 PM19.4 °F3.2 °F49 %30.03 in10.0 miWest (270°)9.2 mphClear
5:15 PM19.4 °F1.4 °F46 %30.03 in10.0 miWest (280°)8.1 mphClear
5:35 PM19.4 °F1.4 °F46 %30.04 in10.0 miWNW (290°)8.1 mphClear
5:55 PM19.4 °F1.4 °F46 %30.03 in10.0 miWest (280°)9.2 mphClear
6:15 PM19.4 °F1.4 °F46 %30.04 in10.0 miWNW (290°)5.8 mphClear
6:35 PM17.6 °F1.4 °F49 %30.05 in10.0 miWNW (300°)4.6 mphClear
6:55 PM19.4 °F-0.4 °F42 %30.05 in10.0 miWNW (290°)3.5 mphClear
7:15 PM17.6 °F1.4 °F49 %30.06 in10.0 miWest (270°)3.5 mphClear
7:35 PM19.4 °F-0.4 °F42 %30.06 in10.0 miWest (260°)3.5 mphMostly Cloudy
7:55 PM19.4 °F1.4 °F46 %30.06 in10.0 miCalmOvercast
8:15 PM19.4 °F3.2 °F49 %30.06 in10.0 miCalmOvercast
8:35 PM21.2 °F8.6 °F58 %30.05 in10.0 miWest (280°)9.2 mphOvercast
8:55 PM23.0 °F12.2 °F63 %30.06 in10.0 miWNW (290°)9.2 mphOvercast
9:15 PM24.8 °F12.2 °F59 %30.05 in10.0 miWest (280°)9.2 mphOvercast
9:35 PM24.8 °F14.0 °F64 %30.06 in10.0 miWNW (290°)9.2 mphOvercast
9:55 PM24.8 °F14.0 °F64 %30.06 in10.0 miWNW (290°)9.2 mphMostly Cloudy
10:15 PM23.0 °F14.0 °F68 %30.06 in10.0 miWest (280°)8.1 mphMostly Cloudy
10:35 PM24.8 °F14.0 °F64 %30.05 in10.0 miWNW (290°)8.1 mphOvercast
10:55 PM23.0 °F14.0 °F68 %30.04 in10.0 miWest (270°)4.6 mphMostly Cloudy
11:15 PM21.2 °F14.0 °F74 %30.04 in10.0 miCalmMostly Cloudy
11:35 PM19.4 °F12.2 °F74 %30.03 in10.0 miCalmOvercast
11:55 PM23.0 °F14.0 °F68 %30.01 in10.0 miWSW (250°)5.8 mphOvercast
Hourly data recorded from KFMH, located miles away from Forestdale, Massachusetts







STORIES FROM OUR PARTNERS